Regional Weather Roundup
Issued by NWS Sioux Falls, SD

Home | Current Version | Previous Version | Text Only | Print | Product List | Glossary On
Versions: 1 2 3 4 5 6 7 8 9 10 11 12 13 14 15 16 17 18 19 20 21 22 23 24 25 26 27 28 29 30 31 32 33 34 35 36 37 38 39 40 41 42 43 44 45 46 47 48 49 50
000
ASUS43 KFSD 230902
RWRFSD

WEATHER ROUNDUP FOR SE SOUTH DAKOTA/SW MINNESOTA/NW IOWA
NATIONAL WEATHER SERVICE SIOUX FALLS SD
400 AM CDT WED JUL 23 2014

NOTE: "FAIR" INDICATES FEW OR NO CLOUDS BELOW 12,000 FEET WITH NO
SIGNIFICANT WEATHER AND OR OBSTRUCTIONS TO VISIBILITY.


SDZ038>040-050-052>070-231000-
SOUTHEAST SOUTH DAKOTA

CITY           SKY/WX    TMP DP  RH WIND       PRES   REMARKS
CHAMBERLAIN    MOCLDY    62  59  90 E6        30.24S
HURON          CLEAR     61  58  90 E5        30.24R
MADISON        FAIR      55  55 100 NE6       30.25F
MITCHELL       CLEAR     62  58  86 E5        30.24S
SIOUX FALLS    CLEAR     60  56  86 NE3       30.23F
WINNER         FAIR      67  58  72 SE7       30.23S
YANKTON        PTCLDY    63  57  82 CALM      30.22F
$$

MNZ071-072-080-081-089-090-097-098-231000-
SOUTHWEST MINNESOTA

CITY           SKY/WX    TMP DP  RH WIND       PRES   REMARKS
FAIRMONT       CLEAR     57  52  82 N6        30.21S
JACKSON        CLEAR     57  54  88 N3        30.23S
LUVERNE        PTCLDY    63  55  77 N3        30.24S
MARSHALL       CLEAR     55  52  88 W3        30.22F
MONTEVIDEO     CLEAR     57  55  94 NE3       30.24F
PIPESTONE      PTCLDY    61  54  77 CALM      30.24F
REDWOOD FALLS  CLEAR     61  56  83 N3        30.22S
TRACY          CLEAR     60  56  88 NW6       30.24S
WINDOM         CLEAR     57  54  88 N5        30.24R
WORTHINGTON    PTCLDY    57  54  88 N7        30.25S
$$

IAZ001>003-012>014-020>022-031-032-NEZ013-014-SDZ071-231000-
NORTHWEST IOWA

CITY           SKY/WX    TMP DP  RH WIND       PRES   REMARKS
CHEROKEE       CLEAR     59  58  96 NE5       30.22R
DENISON        CLEAR     63  57  82 NE7       30.18F
ESTHERVILLE    CLEAR     58  54  86 N8        30.22R
LE MARS        CLEAR     59  57  94 CALM      30.22F
ORANGE CITY    CLEAR     64  54  68 NE5       30.23S
SHELDON        PTCLDY    57  55  94 N5        30.22S
SIOUX CITY     PTCLDY    66  58  75 NE7       30.21S
SPENCER        CLEAR     61  56  83 N7        30.22S
STORM LAKE     CLEAR     63  59  88 N9        30.21F
$$

ABBREVIATIONS USED IN REMARKS
   TC - TEMPERATURE IN CELSIUS
  WCI - WIND CHILL INDEX
   HX - HEAT INDEX
  VSB - VISIBILITY



USA.gov is the U.S. government's official web portal to all federal, state and local government web resources and services.